ORBCOMM FM114 [+] (41179 NORAD) Tracking and Keplerian Element Data

This shows tracking and keplerian element data for the satellite.

Feedback or suggestion? Click here.




ElementValue
Catalog41179
NameORBCOMM FM114 [+]
Epoch Orbit15378
Epoch Day317.53539199
Epoch Year2018
RAAN89.8899
Inclination47.003
Eccentricity0.0002577
Argument of Perigee158.4445
Mean Anonmoly201.6548
Mean Motion14.54745196
Decay Rate-1.32E-06
L11 41179U 15081A 18317.53539199 -.00000132 00000-0 78914-5 0 9992
L22 41179 47.0030 89.8899 0002577 158.4445 201.6548 14.54745196153787

Live tracking and technical data element details for ORBCOMM FM114 [+] (NORAD 41179). ORBCOMM FM114 [+] can be tracked NOW for your location showing map with azimuth and elevation plus other details from your city location.

Track the satellite on the map from your city or location and see movement details for azimuth, elevation, latitude, longitude, range, height, and movement on the map or in text.







IsCatalogInMostPopularTable: catalog: 41179, numindb: 134
Update: records affected: 1



GetName: 41179 ORBCOMM FM114 [+]

Hit Count: updated at: Wed, 14 Nov 2018 10:49:34 GMT